Weather History for KHCD - October, 2012

Change the Weather History Date:

Monday, October 15, 2012

  Actual Average Record
Temperature  
Mean Temperature 46 °F -  
Max Temperature 62 °F - - ()
Min Temperature 29 °F - - ()
Degree Days  
Heating Degree Days 20    
Moisture  
Dew Point 38 °F    
Average Humidity 70    
Maximum Humidity 100    
Minimum Humidity 42    
Precipitation  
Precipitation 0.00 in - - ()
Sea Level Pressure  
Sea Level Pressure 29.87 in    
Wind  
Wind Speed 5 mph (South)    
Max Wind Speed 9 mph    
Max Gust Speed -    
Visibility 10 miles    
Events      
T = Trace of Precipitation, MM = Missing Value Source: NWS Daily Summary

Daily Weather History Graph

Daily Weather History Graph

Search for Another Location

Airport or City:

Trip Planner

Search our weather history database for the weather conditions in past years. The results will help you decide how hot, cold, wet, or windy it might be!

Date:

Astronomy

Oct. 15, 2012 Rise Set
Actual Time 7:33 AM CDT 6:31 PM CDT
Civil Twilight 7:04 AM CDT 7:01 PM CDT
Nautical Twilight 6:30 AM CDT 7:35 PM CDT
Astronomical Twilight 5:56 AM CDT 8:09 PM CDT
Moon 7:47 AM CDT (10/15) 6:28 PM CDT (10/15)
Length of Visible Light 11h 57m
Length of Day
10h 58m
New Moon, 0% of the Moon is Illuminated
Oct 15
New Moon
Oct 21
First Quarter
Oct 29
Full
Nov 6
Last Quarter
Nov 13
New

Hourly Weather History & Observations

Time (CDT) Temp. Windchill Dew Point Humidity Pressure Visibility Wind Dir Wind Speed Gust Speed Precip Events Conditions
12:09 AM 42.3 °F 37.9 °F 36.7 °F 81% 29.91 in 10.0 mi WNW 6.9 mph - N/A   Clear
12:29 AM 41.9 °F 36.9 °F 36.5 °F 81% 29.91 in 10.0 mi WNW 8.1 mph - N/A   Clear
12:48 AM 41.5 °F 37.1 °F 36.7 °F 83% 29.91 in 10.0 mi WNW 6.9 mph - N/A   Clear
1:09 AM 40.1 °F 36.1 °F 36.0 °F 85% 29.91 in 10.0 mi NW 5.8 mph - N/A   Clear
1:29 AM 40.3 °F 35.5 °F 36.5 °F 86% 29.92 in 10.0 mi WNW 6.9 mph - N/A   Clear
1:48 AM 39.9 °F 35.8 °F 36.0 °F 86% 29.92 in 10.0 mi West 5.8 mph - N/A   Clear
2:09 AM 39.2 °F 35.9 °F 35.8 °F 88% 29.93 in 10.0 mi WNW 4.6 mph - N/A   Clear
2:29 AM 36.5 °F 32.7 °F 34.3 °F 92% 29.93 in 10.0 mi West 4.6 mph - N/A   Clear
2:49 AM 34.0 °F 29.8 °F 32.4 °F 94% 29.93 in 10.0 mi West 4.6 mph - N/A   Clear
3:09 AM 34.9 °F - 33.8 °F 96% 29.93 in 10.0 mi Calm Calm - N/A   Clear
3:29 AM 34.0 °F 29.8 °F 33.1 °F 96% 29.93 in 10.0 mi West 4.6 mph - N/A   Clear
3:49 AM 34.0 °F 31.0 °F 32.9 °F 96% 29.93 in 10.0 mi West 3.5 mph - N/A   Clear
4:09 AM 34.0 °F 31.0 °F 33.3 °F 97% 29.92 in 10.0 mi WNW 3.5 mph - N/A   Clear
4:28 AM 34.0 °F - 33.3 °F 97% 29.92 in 10.0 mi Calm Calm - N/A   Clear
4:49 AM 34.0 °F - 33.4 °F 98% 29.92 in 10.0 mi Calm Calm - N/A   Clear
5:09 AM 31.8 °F 28.5 °F 31.5 °F 99% 29.93 in 10.0 mi West 3.5 mph - N/A   Clear
5:28 AM 30.7 °F 24.9 °F 30.6 °F 99% 29.93 in 10.0 mi West 5.8 mph - N/A   Clear
5:49 AM 31.8 °F - 31.6 °F 99% 29.92 in 10.0 mi Calm Calm - N/A   Clear
6:08 AM 29.3 °F - 29.3 °F 100% 29.93 in 10.0 mi Calm Calm - N/A   Clear
6:29 AM 29.7 °F 26.1 °F 29.7 °F 100% 29.93 in 10.0 mi West 3.5 mph - N/A   Clear
6:48 AM 29.3 °F 24.3 °F 29.3 °F 100% 29.93 in 10.0 mi West 4.6 mph - N/A   Clear
7:09 AM 31.8 °F - 32.0 °F 100% 29.93 in 7.0 mi Calm Calm - N/A   Clear
7:28 AM 29.3 °F 24.3 °F 29.3 °F 100% 29.94 in 4.0 mi WSW 4.6 mph - N/A   Clear
7:49 AM 29.5 °F - 29.5 °F 100% 29.94 in 5.0 mi Calm Calm - N/A   Clear
8:09 AM 31.3 °F 27.9 °F 31.5 °F 100% 29.94 in 7.0 mi West 3.5 mph - N/A   Clear
8:28 AM 34.0 °F - 34.2 °F 100% 29.95 in 10.0 mi Calm Calm - N/A   Clear
8:49 AM 36.5 °F - 36.5 °F 100% 29.95 in 10.0 mi Calm Calm - N/A   Clear
9:08 AM 39.2 °F 37.0 °F 38.3 °F 97% 29.96 in 10.0 mi West 3.5 mph - N/A   Clear
9:29 AM 40.8 °F - 38.7 °F 92% 29.96 in 10.0 mi Calm Calm - N/A   Clear
9:49 AM 43.2 °F - 39.2 °F 86% 29.96 in 10.0 mi Calm Calm - N/A   Clear
10:08 AM 47.3 °F - 41.7 °F 81% 29.96 in 7.0 mi Calm Calm - N/A   Clear
10:29 AM 49.1 °F - 41.0 °F 74% 29.96 in 10.0 mi SSW 3.5 mph - N/A   Clear
10:48 AM 51.8 °F - 41.4 °F 68% 29.95 in 10.0 mi SSW 4.6 mph - N/A   Clear
11:09 AM 51.8 °F - 40.6 °F 66% 29.95 in 10.0 mi SSW 3.5 mph - N/A   Clear
11:29 AM 54.1 °F - 42.4 °F 65% 29.95 in 5.0 mi SW 3.5 mph - N/A   Haze
11:49 AM 54.1 °F - 41.0 °F 61% 29.95 in 7.0 mi South 4.6 mph - N/A   Clear
12:09 PM 56.7 °F - 42.1 °F 58% 29.94 in 10.0 mi SSW 4.6 mph - N/A   Clear
12:28 PM 57.0 °F - 41.0 °F 55% 29.93 in 10.0 mi SSW 4.6 mph - N/A   Clear
12:49 PM 58.6 °F - 41.9 °F 54% 29.92 in 10.0 mi SSW 4.6 mph - N/A   Clear
1:04 PM 59.0 °F - 42.4 °F 54% 29.91 in 10.0 mi South 4.6 mph - N/A   Clear
1:30 PM 59.0 °F - 41.0 °F 51% 29.90 in 10.0 mi South 3.5 mph - N/A   Clear
1:50 PM 59.0 °F - 41.0 °F 51% 29.88 in 10.0 mi SSE 5.8 mph - N/A   Clear
2:10 PM 60.8 °F - 41.0 °F 48% 29.87 in 10.0 mi SE 9.2 mph - N/A   Clear
2:12 PM 61.0 °F - 41.0 °F 48% 29.87 in 10.0 mi SE 8.1 mph - N/A   Clear
2:28 PM 61.7 °F - 41.0 °F 47% 29.86 in 10.0 mi SSE 6.9 mph - N/A   Scattered Clouds
2:49 PM 61.7 °F - 41.0 °F 47% 29.85 in 10.0 mi SSE 6.9 mph - N/A   Mostly Cloudy
3:08 PM 61.7 °F - 40.6 °F 46% 29.85 in 10.0 mi SE 8.1 mph - N/A   Overcast
3:24 PM 62.1 °F - 40.6 °F 45% 29.85 in 10.0 mi South 5.8 mph - N/A   Overcast
3:50 PM 62.6 °F - 41.0 °F 45% 29.84 in 10.0 mi South 5.8 mph - N/A   Overcast
4:10 PM 60.8 °F - 41.0 °F 48% 29.83 in 10.0 mi SSE 5.8 mph - N/A   Overcast
4:30 PM 60.8 °F - 41.0 °F 48% 29.83 in 10.0 mi SE 8.1 mph - N/A   Overcast
4:50 PM 62.6 °F - 41.0 °F 45% 29.82 in 10.0 mi SSE 5.8 mph - N/A   Overcast
5:10 PM 62.6 °F - 39.2 °F 42% 29.81 in 10.0 mi SSE 5.8 mph - N/A   Mostly Cloudy
5:30 PM 62.6 °F - 41.0 °F 45% 29.81 in 10.0 mi SE 6.9 mph - N/A   Mostly Cloudy
5:50 PM 60.8 °F - 41.0 °F 48% 29.80 in 10.0 mi SE 8.1 mph - N/A   Mostly Cloudy
6:10 PM 60.8 °F - 41.0 °F 48% 29.79 in 10.0 mi SE 8.1 mph - N/A   Scattered Clouds
6:30 PM 59.0 °F - 39.2 °F 48% 29.79 in 10.0 mi SE 6.9 mph - N/A   Clear
6:50 PM 59.0 °F - 41.0 °F 51% 29.78 in 10.0 mi SE 6.9 mph - N/A   Clear
7:10 PM 59.0 °F - 41.0 °F 51% 29.78 in 10.0 mi SE 8.1 mph - N/A   Clear
7:30 PM 59.0 °F - 41.0 °F 51% 29.78 in 10.0 mi SE 8.1 mph - N/A   Clear
7:40 PM 57.2 °F - 40.1 °F 53% 29.77 in 10.0 mi SE 8.1 mph - N/A   Clear
7:48 PM 57.2 °F - 40.1 °F 53% 29.77 in 10.0 mi SE 8.1 mph - N/A   Clear
8:09 PM 56.7 °F - 40.1 °F 54% 29.77 in 10.0 mi SE 6.9 mph - N/A   Clear
8:29 PM 56.7 °F - 39.9 °F 54% 29.76 in 10.0 mi SE 8.1 mph - N/A   Clear
8:49 PM 56.8 °F - 40.1 °F 54% 29.76 in 10.0 mi SE 8.1 mph - N/A   Clear
9:08 PM 57.9 °F - 40.6 °F 53% 29.76 in 10.0 mi SE 6.9 mph - N/A   Clear
9:29 PM 59.2 °F - 41.5 °F 52% 29.75 in 10.0 mi SE 8.1 mph - N/A   Clear
9:49 PM 59.2 °F - 41.9 °F 53% 29.74 in 10.0 mi SE 8.1 mph - N/A   Clear
10:09 PM 57.2 °F - 41.0 °F 55% 29.73 in 10.0 mi SSE 6.9 mph - N/A   Clear
10:28 PM 56.7 °F - 41.0 °F 56% 29.73 in 10.0 mi SSE 5.8 mph - N/A   Clear
10:46 PM 56.7 °F - 41.5 °F 57% 29.72 in 10.0 mi SSE 8.1 mph - N/A   Clear
11:09 PM 56.7 °F - 42.3 °F 59% 29.71 in 10.0 mi SSE 6.9 mph - N/A   Clear
11:29 PM 56.7 °F - 42.8 °F 60% 29.70 in 10.0 mi SSE 6.9 mph - N/A   Clear
11:48 PM 56.7 °F - 43.0 °F 60% 29.69 in 10.0 mi SSE 5.8 mph - N/A   Clear